Time,TemperatureF,DewpointF,PressureIn,WindDirection,WindDirectionDegrees,WindSpeedMPH,WindSpeedGustMPH,Humidity,HourlyPrecipIn,Conditions,Clouds,dailyrainin,SoftwareType,DateUTC
2013-02-10 00:02:00,36.3,16.0,30.41,SSW,211,4.0,-999.0,43,-99.99,,,0.00,weatherlink.com 1.10,2013-02-10 05:02:00,
2013-02-10 00:17:00,36.4,16.0,30.41,SW,219,3.0,-999.0,43,-99.99,,,0.00,weatherlink.com 1.10,2013-02-10 05:17:00,
2013-02-10 00:32:00,35.8,16.0,30.40,SSW,195,6.0,-999.0,44,-99.99,,,0.00,weatherlink.com 1.10,2013-02-10 05:32:00,
2013-02-10 00:47:00,35.7,17.0,30.40,South,178,12.0,-999.0,46,-99.99,,,0.00,weatherlink.com 1.10,2013-02-10 05:47:00,
2013-02-10 01:02:00,35.6,16.0,30.40,South,184,12.0,-999.0,45,-99.99,,,0.00,weatherlink.com 1.10,2013-02-10 06:02:00,
2013-02-10 01:17:00,35.5,16.0,30.40,South,186,9.0,-999.0,45,-99.99,,,0.00,weatherlink.com 1.10,2013-02-10 06:17:00,
2013-02-10 01:32:00,35.3,16.0,30.40,SSW,194,4.0,-999.0,45,-99.99,,,0.00,weatherlink.com 1.10,2013-02-10 06:32:00,
2013-02-10 01:47:00,35.2,15.0,30.41,SSW,197,8.0,-999.0,44,-99.99,,,0.00,weatherlink.com 1.10,2013-02-10 06:47:00,
2013-02-10 02:02:00,35.4,15.0,30.41,SSW,194,6.0,-999.0,44,-99.99,,,0.00,weatherlink.com 1.10,2013-02-10 07:02:00,
2013-02-10 02:17:00,35.5,15.0,30.41,SSW,198,9.0,-999.0,44,-99.99,,,0.00,weatherlink.com 1.10,2013-02-10 07:17:00,
2013-02-10 02:32:00,35.4,15.0,30.41,SSE,154,8.0,-999.0,44,-99.99,,,0.00,weatherlink.com 1.10,2013-02-10 07:32:00,
2013-02-10 02:47:00,35.2,15.0,30.41,SSW,203,5.0,-999.0,44,-99.99,,,0.00,weatherlink.com 1.10,2013-02-10 07:47:00,
2013-02-10 03:02:00,35.2,15.0,30.40,SSW,205,10.0,-999.0,44,-99.99,,,0.00,weatherlink.com 1.10,2013-02-10 08:02:00,
2013-02-10 03:17:00,36.0,15.0,30.40,South,184,8.0,-999.0,43,-99.99,,,0.00,weatherlink.com 1.10,2013-02-10 08:17:00,
2013-02-10 03:32:00,36.0,15.0,30.40,South,190,8.0,-999.0,43,-99.99,,,0.00,weatherlink.com 1.10,2013-02-10 08:32:00,
2013-02-10 03:47:00,36.4,15.0,30.40,South,178,9.0,-999.0,41,-99.99,,,0.00,weatherlink.com 1.10,2013-02-10 08:47:00,
2013-02-10 04:02:00,35.9,15.0,30.40,SSW,195,14.0,-999.0,42,-99.99,,,0.00,weatherlink.com 1.10,2013-02-10 09:02:00,
2013-02-10 04:17:00,36.0,15.0,30.40,SSW,205,9.0,-999.0,42,-99.99,,,0.00,weatherlink.com 1.10,2013-02-10 09:17:00,
2013-02-10 04:32:00,35.8,15.0,30.39,South,190,9.0,-999.0,43,-99.99,,,0.00,weatherlink.com 1.10,2013-02-10 09:32:00,
2013-02-10 04:47:00,35.6,15.0,30.39,SSW,196,5.0,-999.0,43,-99.99,,,0.00,weatherlink.com 1.10,2013-02-10 09:47:00,
2013-02-10 05:02:00,35.5,15.0,30.39,SSW,201,11.0,-999.0,43,-99.99,,,0.00,weatherlink.com 1.10,2013-02-10 10:02:00,
2013-02-10 05:17:00,35.5,15.0,30.39,SSW,213,12.0,-999.0,44,-99.99,,,0.00,weatherlink.com 1.10,2013-02-10 10:17:00,
2013-02-10 05:32:00,35.4,15.0,30.39,South,180,8.0,-999.0,43,-99.99,,,0.00,weatherlink.com 1.10,2013-02-10 10:32:00,
2013-02-10 05:47:00,35.3,15.0,30.39,SSW,196,10.0,-999.0,44,-99.99,,,0.00,weatherlink.com 1.10,2013-02-10 10:47:00,
2013-02-10 06:02:00,35.4,15.0,30.39,South,169,8.0,-999.0,44,-99.99,,,0.00,weatherlink.com 1.10,2013-02-10 11:02:00,
2013-02-10 06:17:00,35.2,15.0,30.40,SSW,200,10.0,-999.0,44,-99.99,,,0.00,weatherlink.com 1.10,2013-02-10 11:17:00,
2013-02-10 06:32:00,35.1,16.0,30.41,SSW,196,8.0,-999.0,45,-99.99,,,0.00,weatherlink.com 1.10,2013-02-10 11:32:00,
2013-02-10 06:47:00,35.0,15.0,30.41,SSW,201,5.0,-999.0,45,-99.99,,,0.00,weatherlink.com 1.10,2013-02-10 11:47:00,
2013-02-10 07:02:00,34.1,16.0,30.42,South,170,8.0,-999.0,47,-99.99,,,0.00,weatherlink.com 1.10,2013-02-10 12:02:00,
2013-02-10 07:17:00,33.7,16.0,30.43,SSW,197,6.0,-999.0,48,-99.99,,,0.00,weatherlink.com 1.10,2013-02-10 12:17:00,
2013-02-10 07:32:00,33.1,16.0,30.42,South,173,9.0,-999.0,49,-99.99,,,0.00,weatherlink.com 1.10,2013-02-10 12:32:00,
2013-02-10 07:47:00,33.3,16.0,30.42,SSE,163,7.0,-999.0,49,-99.99,,,0.00,weatherlink.com 1.10,2013-02-10 12:47:00,
2013-02-10 08:02:00,32.9,15.0,30.42,SSW,194,1.0,-999.0,49,-99.99,,,0.00,weatherlink.com 1.10,2013-02-10 13:02:00,
2013-02-10 08:17:00,32.6,16.0,30.42,South,191,7.0,-999.0,50,-99.99,,,0.00,weatherlink.com 1.10,2013-02-10 13:17:00,
2013-02-10 08:32:00,32.4,16.0,30.42,SSW,198,7.0,-999.0,50,-99.99,,,0.00,weatherlink.com 1.10,2013-02-10 13:32:00,
2013-02-10 08:47:00,32.8,16.0,30.42,SSE,166,13.0,-999.0,50,-99.99,,,0.00,weatherlink.com 1.10,2013-02-10 13:47:00,
2013-02-10 09:02:00,33.4,16.0,30.42,South,169,9.0,-999.0,49,-99.99,,,0.00,weatherlink.com 1.10,2013-02-10 14:02:00,
2013-02-10 09:17:00,33.6,17.0,30.42,SSW,192,11.0,-999.0,50,-99.99,,,0.00,weatherlink.com 1.10,2013-02-10 14:17:00,
2013-02-10 09:32:00,33.7,17.0,30.43,SSE,153,7.0,-999.0,50,-99.99,,,0.00,weatherlink.com 1.10,2013-02-10 14:32:00,
2013-02-10 09:47:00,34.3,17.0,30.43,SSW,208,8.0,-999.0,50,-99.99,,,0.00,weatherlink.com 1.10,2013-02-10 14:47:00,
2013-02-10 10:02:00,34.2,17.0,30.42,SSW,213,8.0,-999.0,49,-99.99,,,0.00,weatherlink.com 1.10,2013-02-10 15:02:00,
2013-02-10 10:17:00,34.7,17.0,30.42,SSE,165,7.0,-999.0,48,-99.99,,,0.00,weatherlink.com 1.10,2013-02-10 15:17:00,
2013-02-10 10:32:00,35.0,16.0,30.43,SW,215,13.0,-999.0,47,-99.99,,,0.00,weatherlink.com 1.10,2013-02-10 15:32:00,
2013-02-10 10:47:00,35.7,18.0,30.42,SSW,211,7.0,-999.0,48,-99.99,,,0.00,weatherlink.com 1.10,2013-02-10 15:47:00,
2013-02-10 11:02:00,36.1,18.0,30.42,SSW,204,11.0,-999.0,48,-99.99,,,0.00,weatherlink.com 1.10,2013-02-10 16:02:00,
2013-02-10 11:17:00,36.5,18.0,30.41,South,178,14.0,-999.0,48,-99.99,,,0.00,weatherlink.com 1.10,2013-02-10 16:17:00,
2013-02-10 11:32:00,36.9,19.0,30.41,SSW,203,15.0,-999.0,49,-99.99,,,0.00,weatherlink.com 1.10,2013-02-10 16:32:00,
2013-02-10 11:47:00,37.1,19.0,30.39,SSW,193,7.0,-999.0,49,-99.99,,,0.00,weatherlink.com 1.10,2013-02-10 16:47:00,
2013-02-10 12:02:00,37.6,19.0,30.38,South,173,11.0,-999.0,47,-99.99,,,0.00,weatherlink.com 1.10,2013-02-10 17:02:00,
2013-02-10 12:17:00,38.8,19.0,30.37,WSW,258,2.0,-999.0,46,-99.99,,,0.00,weatherlink.com 1.10,2013-02-10 17:17:00,
2013-02-10 12:32:00,38.8,19.0,30.37,South,175,7.0,-999.0,45,-99.99,,,0.00,weatherlink.com 1.10,2013-02-10 17:32:00,
2013-02-10 12:47:00,37.4,19.0,30.36,South,186,9.0,-999.0,47,-99.99,,,0.00,weatherlink.com 1.10,2013-02-10 17:47:00,
2013-02-10 13:02:00,37.7,20.0,30.36,SW,215,10.0,-999.0,49,-99.99,,,0.00,weatherlink.com 1.10,2013-02-10 18:02:00,
2013-02-10 13:17:00,37.7,20.0,30.35,SSW,207,7.0,-999.0,50,-99.99,,,0.00,weatherlink.com 1.10,2013-02-10 18:17:00,
2013-02-10 13:32:00,38.4,20.0,30.33,SSW,196,7.0,-999.0,47,-99.99,,,0.00,weatherlink.com 1.10,2013-02-10 18:32:00,
2013-02-10 13:47:00,38.4,20.0,30.32,South,178,15.0,-999.0,47,-99.99,,,0.00,weatherlink.com 1.10,2013-02-10 18:47:00,
2013-02-10 14:02:00,39.9,20.0,30.30,SSE,163,8.0,-999.0,46,-99.99,,,0.00,weatherlink.com 1.10,2013-02-10 19:02:00,
2013-02-10 14:17:00,40.9,22.0,30.30,SSW,209,2.0,-999.0,47,-99.99,,,0.00,weatherlink.com 1.10,2013-02-10 19:17:00,
2013-02-10 14:32:00,40.1,22.0,30.30,WSW,244,6.0,-999.0,48,-99.99,,,0.00,weatherlink.com 1.10,2013-02-10 19:32:00,
2013-02-10 14:47:00,40.0,22.0,30.30,SSW,202,6.0,-999.0,49,-99.99,,,0.00,weatherlink.com 1.10,2013-02-10 19:47:00,
2013-02-10 15:02:00,40.5,22.0,30.31,SSE,159,12.0,-999.0,48,-99.99,,,0.00,weatherlink.com 1.10,2013-02-10 20:02:00,
2013-02-10 15:17:00,40.3,22.0,30.30,SSW,193,10.0,-999.0,49,-99.99,,,0.00,weatherlink.com 1.10,2013-02-10 20:17:00,
2013-02-10 15:32:00,40.5,23.0,30.30,SSE,163,9.0,-999.0,49,-99.99,,,0.00,weatherlink.com 1.10,2013-02-10 20:32:00,
2013-02-10 15:47:00,40.5,21.0,30.29,SSW,194,12.0,-999.0,46,-99.99,,,0.00,weatherlink.com 1.10,2013-02-10 20:47:00,
2013-02-10 16:02:00,40.4,21.0,30.28,SE,146,5.0,-999.0,47,-99.99,,,0.00,weatherlink.com 1.10,2013-02-10 21:02:00,
2013-02-10 16:17:00,40.4,21.0,30.28,SE,146,6.0,-999.0,47,-99.99,,,0.00,weatherlink.com 1.10,2013-02-10 21:17:00,
2013-02-10 16:32:00,40.1,21.0,30.28,SSW,211,4.0,-999.0,47,-99.99,,,0.00,weatherlink.com 1.10,2013-02-10 21:32:00,
2013-02-10 16:47:00,39.7,20.0,30.28,SE,142,6.0,-999.0,46,-99.99,,,0.00,weatherlink.com 1.10,2013-02-10 21:47:00,
2013-02-10 17:02:00,39.1,21.0,30.29,SSE,147,4.0,-999.0,48,-99.99,,,0.00,weatherlink.com 1.10,2013-02-10 22:02:00,
2013-02-10 17:17:00,38.8,22.0,30.29,South,182,6.0,-999.0,51,-99.99,,,0.00,weatherlink.com 1.10,2013-02-10 22:17:00,
2013-02-10 17:32:00,38.4,22.0,30.28,SSE,150,13.0,-999.0,53,-99.99,,,0.00,weatherlink.com 1.10,2013-02-10 22:32:00,
2013-02-10 17:47:00,38.2,22.0,30.29,SSE,157,12.0,-999.0,53,-99.99,,,0.00,weatherlink.com 1.10,2013-02-10 22:47:00,
2013-02-10 18:02:00,38.1,23.0,30.30,SSE,159,11.0,-999.0,54,-99.99,,,0.00,weatherlink.com 1.10,2013-02-10 23:02:00,
2013-02-10 18:17:00,37.5,24.0,30.30,SE,146,8.0,-999.0,58,-99.99,,,0.00,weatherlink.com 1.10,2013-02-10 23:17:00,
2013-02-10 18:32:00,36.5,26.0,30.30,South,186,7.0,-999.0,65,-99.99,,,0.00,weatherlink.com 1.10,2013-02-10 23:32:00,
2013-02-10 18:47:00,34.4,28.0,30.30,South,182,5.0,-999.0,77,-99.99,,,0.00,weatherlink.com 1.10,2013-02-10 23:47:00,
2013-02-10 19:02:00,33.3,30.0,30.31,SW,221,6.0,-999.0,87,-99.99,,,0.00,weatherlink.com 1.10,2013-02-11 00:02:00,
2013-02-10 19:17:00,33.2,30.0,30.31,South,170,5.0,-999.0,87,-99.99,,,0.00,weatherlink.com 1.10,2013-02-11 00:17:00,
2013-02-10 19:32:00,33.4,31.0,30.30,South,182,3.0,-999.0,89,-99.99,,,0.00,weatherlink.com 1.10,2013-02-11 00:32:00,
2013-02-10 19:47:00,33.7,31.0,30.30,South,187,4.0,-999.0,89,-99.99,,,0.01,weatherlink.com 1.10,2013-02-11 00:47:00,
2013-02-10 20:02:00,33.4,31.0,30.30,SSW,198,5.0,-999.0,89,-99.99,,,0.03,weatherlink.com 1.10,2013-02-11 01:02:00,
2013-02-10 20:17:00,33.1,31.0,30.29,South,173,5.0,-999.0,91,-99.99,,,0.04,weatherlink.com 1.10,2013-02-11 01:17:00,
2013-02-10 20:32:00,32.9,31.0,30.30,South,180,5.0,-999.0,92,-99.99,,,0.05,weatherlink.com 1.10,2013-02-11 01:32:00,
2013-02-10 20:47:00,32.8,31.0,30.30,SSE,165,6.0,-999.0,94,-99.99,,,0.05,weatherlink.com 1.10,2013-02-11 01:47:00,
2013-02-10 21:02:00,32.4,31.0,30.29,SE,144,5.0,-999.0,94,-99.99,,,0.06,weatherlink.com 1.10,2013-02-11 02:02:00,
2013-02-10 21:17:00,32.4,31.0,30.29,South,180,8.0,-999.0,96,-99.99,,,0.07,weatherlink.com 1.10,2013-02-11 02:17:00,
2013-02-10 21:32:00,31.9,31.0,30.27,SSE,164,4.0,-999.0,96,-99.99,,,0.08,weatherlink.com 1.10,2013-02-11 02:32:00,
2013-02-10 21:47:00,32.2,31.0,30.27,SSW,192,9.0,-999.0,96,-99.99,,,0.08,weatherlink.com 1.10,2013-02-11 02:47:00,
2013-02-10 22:02:00,32.1,31.0,30.26,SSW,200,4.0,-999.0,97,-99.99,,,0.08,weatherlink.com 1.10,2013-02-11 03:02:00,
2013-02-10 22:17:00,32.3,32.0,30.26,South,180,8.0,-999.0,97,-99.99,,,0.08,weatherlink.com 1.10,2013-02-11 03:17:00,
2013-02-10 22:32:00,32.9,32.0,30.25,SSW,202,6.0,-999.0,97,-99.99,,,0.08,weatherlink.com 1.10,2013-02-11 03:32:00,
2013-02-10 22:47:00,33.9,33.0,30.24,SSE,161,6.0,-999.0,98,-99.99,,,0.09,weatherlink.com 1.10,2013-02-11 03:47:00,
2013-02-10 23:02:00,34.5,34.0,30.24,SSE,147,13.0,-999.0,98,-99.99,,,0.10,weatherlink.com 1.10,2013-02-11 04:02:00,
2013-02-10 23:17:00,35.7,35.0,30.23,SSW,207,17.0,-999.0,98,-99.99,,,0.11,weatherlink.com 1.10,2013-02-11 04:17:00,
2013-02-10 23:32:00,36.6,36.0,30.22,South,170,10.0,-999.0,98,-99.99,,,0.13,weatherlink.com 1.10,2013-02-11 04:32:00,
2013-02-10 23:47:00,37.0,37.0,30.20,SSW,196,6.0,-999.0,98,-99.99,,,0.14,weatherlink.com 1.10,2013-02-11 04:47:00,